Regional Weather Roundup
Issued by NWS Sterling, VA

Home | Current Version | Previous Version | Graphics & Text | Print | Product List | Glossary On
Versions: 1 2 3 4 5 6 7 8 9 10 11 12 13 14 15 16 17 18 19 20 21 22 23 24 25 26 27 28 29 30 31 32 33 34 35 36 37 38 39 40 41 42 43 44 45 46 47 48 49 50
000
ASUS41 KLWX 221110
RWRLWX

REGIONAL WEATHER ROUNDUP
NATIONAL WEATHER SERVICE BALTIMORE MD/WASHINGTON DC
700 AM EDT WED MAR 22 2017

Note: "FAIR" indicates few or no clouds below 12,000 feet
with no significant weather and/or obstructions to visibility.
 TC=TEMPERATURE CELSIUS

 * =Non NWS site. Station does not report precipitation (e.g. rain,
    snow, etc.), thunder, or fog.

DCZ001-MDZ009-015-VAZ040>042-051-053>054-221200-
WASHINGTON METRO

CITY           SKY/WX    TMP DP  RH WIND       PRES   REMARKS
WASHINGTON NAT PTCLDY    46  26  45 NW22G35   30.09R
DULLES         PTCLDY    40  23  50 NW18G32   30.09R
ANDREWS AFB    CLEAR     46  26  46 NW23G30   30.04R
FT BELVOIR     CLEAR     46  25  43 NW17G29   30.08R
QUANTICO       MOCLDY    48  28  46 N22G38    30.08R
COLLEGE PARK*  CLEAR     43  27  52 NW10G23   30.08R
LEESBURG*      CLEAR     41  28  60 N12G23    30.12R
MANASSAS*      CLEAR     42  26  53 N22G32    30.10R
GAITHERSBURG*  CLEAR     39  19  45 NW20G30   30.11R

$$

MDZ006>007-011-014-221200-
BALTIMORE METRO

CITY           SKY/WX    TMP DP  RH WIND       PRES   REMARKS
BWI AIRPORT    PTCLDY    42  27  55 NW10      30.06R
MD SCIENCE CTR   N/A     44  23  43 MISG      30.04R
MARTIN STATE   PTCLDY    45  27  49 NW23G31   30.07R
ANNAPOLIS      CLEAR     47  30  51 N15       30.05R
FORT MEADE*    CLEAR     43  27  52 NW8G23    30.09R

$$

MDZ012-015-019>023-221200-
MARYLAND EASTERN SHORE

CITY           SKY/WX    TMP DP  RH WIND       PRES   REMARKS
OCEAN CITY     CLOUDY    50  36  58 N10       29.96R
SALISBURY      CLOUDY    51  32  48 N10G21    29.96R
BAY BRIDGE AP* PTCLDY    45  30  57 N20G28    30.05R
CAMBRIDGE*     CLEAR     50  30  46 N21G26    29.99R
EASTON*        PTCLDY    48  27  43 N16G24    30.05R

$$

MDZ017>025-221200-
SOUTHERN MARYLAND

CITY           SKY/WX    TMP DP  RH WIND       PRES   REMARKS
PATUXENT RIVER CLOUDY    51  35  54 N15       29.99R
ST INIGOES       N/A    N/A N/A N/A MISG      29.97R
LEONARDTOWN*   MOCLDY    50  30  46 NW6       30.01R

$$

MDZ003>005-221200-
NORTH CENTRAL MARYLAND

CITY           SKY/WX    TMP DP  RH WIND       PRES   REMARKS
FREDERICK*     PTCLDY    41  28  60 NW14G21   30.14R
HAGERSTOWN APT PTCLDY    34  18  52 NW22G32   30.13R WCI  22
WESTMINSTER*   CLEAR     37  21  52 NW15G28   30.08R WCI  28

$$

MDZ501>502-221200-
WESTERN MARYLAND

CITY           SKY/WX    TMP DP  RH WIND       PRES   REMARKS
OAKLAND*       CLOUDY    21  14  73 NW13G21   30.11R WCI   9
CUMBERLAND*    CLEAR     32  16  51 N14G23    30.23R WCI  22

$$

VAZ025>031-221200-
SHENANDOAH VALLEY

CITY           SKY/WX    TMP DP  RH WIND       PRES   REMARKS
WINCHESTER*    PTCLDY    34  21  60 NW12G22   30.13R WCI  25
FRONT ROYAL*   MOCLDY    37  27  65 NW5       30.12R
LURAY*         PTCLDY    41  30  65 N5G21     30.11R
NEW MARKET*    CLEAR     37  23  56 N10G18    30.12R
STAUNTON*      CLEAR     42  26  54 N12       30.08R
WAYNESBORO*    CLEAR     46  29  53 NW14G22   30.04R

$$

WVZ021-048>050-054>055-221200-
EASTERN WEST VIRGINIA PANHANDLE

CITY           SKY/WX    TMP DP  RH WIND       PRES   REMARKS
MARTINSBURG    CLEAR     35  18  49 N20G29    30.13R WCI  24
PETERSBURG*    CLOUDY    36  23  59 NW13G29   30.18R WCI  27

$$

VAZ036>039-050-221200-
CENTRAL FOOTHILLS

CITY           SKY/WX    TMP DP  RH WIND       PRES   REMARKS
CHARLOTTESVILL CLEAR     51  28  41 N12G20    30.03R
CULPEPER*      CLEAR     44  27  51 N14G20    30.09R
ORANGE*        PTCLDY    46  28  49 N15G21    30.06R
GORDONSVILLE*  PTCLDY    51  32  48 N8        30.02R
WARRENTON*     CLEAR     44  23  42 NW20G31   30.09R

$$

VAZ055>057-221200-
NORTH AND CENTRAL PIEDMONT

CITY           SKY/WX    TMP DP  RH WIND       PRES   REMARKS
FREDERICKSBRG* CLOUDY    50  30  46 NW16G29   30.04R
STAFFORD*      PTCLDY    46  28  49 N20G29    30.10R

$$

NCZ024-NYZ072-PAZ021-071-VAZ022-071-221200-
OTHER REGIONAL OBSERVATIONS

CITY           SKY/WX    TMP DP  RH WIND       PRES   REMARKS
NEW YORK CITY  CLEAR     39  18  42 W15G24    29.97R
PHILADELPHIA   PTCLDY    43  23  45 N18G30    30.02R
PITTSBURGH     MOCLDY    27  13  55 N10       30.28R WCI  17
ROANOKE        CLEAR     48  31  51 NW8G20    30.06R
RICHMOND       CLOUDY    54  42  64 N9        29.97R
RALEIGH        CLOUDY    56  40  55 N8        29.98R

$$

ANZ530>537-221200-
MARINE OBSERVATIONS

STATION/POSITION TIME  TEMP    WIND        PRES
                       AIR SEA DIR/SP/G
                 (UTC) (F)     (DEG/KT/KT) (MB)
THOMAS PT LIGHT  1100   46 44  350/ 24/ 26   N/A
BALT KEY BRIDGE  1048   44     330/ 21/ 24 1017.4R
COVE POINT       1048   50     360/ 21/ 26 1016.1R
LEWISETTA        1048   53 47  340/  7/  8 1014.6R
SOLOMONS ISLAND  1048   53 45  330/ 14/ 21   N/A

$$




USA.gov is the U.S. government's official web portal to all federal, state and local government web resources and services.